151 
ASUS46 KSEW 260810
RWRWA 

WASHINGTON REGIONAL WEATHER ROUNDUP
NATIONAL WEATHER SERVICE SEATTLE WA
100 AM PDT SAT JUL 26 2014

NOTE:"FAIR" INDICATES FEW OR NO CLOUDS BELOW 12,000 FEET WITH NO 
SIGNIFICANT WEATHER AND/OR OBSTRUCTIONS TO VISIBILITY.

WAZ505-507>509-260900-
SEATTLE, TACOMA, EVERETT, AND VICINITY
  
CITY           SKY/WX    TMP DP  RH WIND       PRES   REMARKS
EVERETT        CLEAR     56  50  80 N5        30.13S                  
BOEING FIELD   CLEAR     63  51  65 CALM      30.11S                  
RENTON         CLEAR     62  54  74 NW7       30.11S                  
SEATAC AIRPORT CLEAR     60  51  72 N6        30.12S                  
JBLM-MCCHORD   CLEAR     59  50  73 CALM      30.12R                  
PUYALLUP       FAIR      52  52 100 CALM      30.12S                  
JBLM-FT LEWIS  CLEAR     58  52  79 W2        30.11S                  
TACOMA NARROWS CLEAR     58  50  75 CALM      30.12S                  
$$
 
WAZ001-503-506-510-514-515-260900-
NORTH INTERIOR
  
CITY           SKY/WX    TMP DP  RH WIND       PRES   REMARKS
BELLINGHAM     CLEAR     56  52  86 CALM      30.11R                  
FRIDAY HARBOR  CLEAR     51  49  92 CALM      30.12R                  
EASTSOUND      CLEAR     57  52  82 S6        30.09R                  
PORT ANGELES   CLEAR     57  50  77 W8        30.13R                  
NAS WHIDBEY    PTCLDY    56  51  84 SW6       30.13R                  
BURLINGTON     CLEAR     54  54 100 CALM      30.13S                  
$$
 
WAZ020-022-039-040-504-511-512-260900-
SOUTHWEST INTERIOR
  
CITY           SKY/WX    TMP DP  RH WIND       PRES   REMARKS
SHELTON        CLEAR     56  52  86 NW3       30.10S                  
OLYMPIA        CLEAR     54  52  93 CALM      30.12S                  
CHEHALIS       FAIR      55  55 100 CALM      30.13R                  
KELSO          CLEAR     57  52  82 CALM      30.15S                  
VANCOUVER      CLEAR     63  53  70 NW5       30.09S                  
SCAPPOOSE, OR  CLEAR     61  53  75 N3        30.09R                  
PORTLAND, OR   CLEAR     63  55  75 NW3       30.10R                  
$$
 
WAZ021-516-517-260900-
WASHINGTON COAST
  
CITY           SKY/WX    TMP DP  RH WIND       PRES   REMARKS
FORKS          CLEAR     50  48  93 CALM      30.14R                  
HOQUIAM        CLEAR     57  54  89 CALM      30.13S                  
ASTORIA, OR    PTCLDY    54  52  93 E3        30.12F                  
$$
 
WAZ019-023-024-040-518-519-260900-
CASCADE MOUNTAINS AND COLUMBIA GORGE
  
CITY           SKY/WX    TMP DP  RH WIND       PRES   REMARKS
STAMPEDE PASS  NOT AVBL                                               
TROUTDALE, OR  CLEAR     59  53  80 CALM      30.08S                  
THE DALLES, OR CLEAR     68  51  54 NW15      30.02S                  
$$

WAZ026-027-041>044-520-521-260900-
EAST SLOPES
  
CITY           SKY/WX    TMP DP  RH WIND       PRES   REMARKS
OMAK           CLEAR     61  44  53 NW7       30.04R                  
WENATCHEE      CLEAR     70  47  43 NW7       30.03R                  
ELLENSBURG     CLEAR     63  51  65 NW8       30.06S                  
YAKIMA         CLEAR     64  51  62 W9        30.04R                  
$$

WAZ028-034-035-260900-
COLUMBIA BASIN
  
CITY           SKY/WX    TMP DP  RH WIND       PRES   REMARKS
EPHRATA        CLEAR     63  44  50 NE3       30.02S                  
MOSES LAKE     CLEAR     59  45  59 N6        30.03S                  
PASCO          CLEAR     60  53  77 CALM      30.00S                  
HERMISTON, OR  CLEAR     57  43  59 CALM      30.00R                  
$$

WAZ036>038-260900-
NORTHEAST WASHINGTON
  
CITY           SKY/WX    TMP DP  RH WIND       PRES   REMARKS
SPOKANE GEIGER CLEAR     61  38  42 CALM      30.07S                  
SPOKANE FELTS  CLEAR     59  45  59 NE6       30.07S                  
FAIRCHILD AFB  CLEAR     56  40  55 SW5       30.08S                  
COEURDALENE,ID CLEAR     55  46  71 S6        30.08R                  
DEER PARK      CLEAR     50  44  80 CALM      30.08R                  
$$

WAZ029>033-260900-
SOUTHEAST WASHINGTON
  
CITY           SKY/WX    TMP DP  RH WIND       PRES   REMARKS
PULLMAN        CLEAR     50  43  77 CALM      30.10S                  
LEWISTON, ID   CLEAR     63  43  48 W5        30.05R                  
WALLA WALLA    CLEAR     64  40  41 E8        30.03S                  
PENDLETON, OR  CLEAR     60  43  53 SE10      30.03S                  
$$